Location: Choisy
(48.7685°N, 2.4187°E)
Time: 22:02:11
(UTC+00:00)

Cosmos 2278 Rocket - Pass Details

Date: 24 October 2021
Orbit: 841 x 845 km, 71.0° (Epoch: 04 December)

Event Time Altitude Azimuth Distance (km) Brightness Sun altitude
Rises 17:43:14 0° 335° (NNW) 3,417 5.6 -10.4°
Reaches altitude 10° 17:47:07 10° 1° (N) 2,478 4.6 -11.1°
Maximum altitude 17:49:54 14° 31° (NNE) 2,222 4.1 -11.5°
Enters shadow 17:52:06 11° 55° (NE) 2,381 4.0 -11.9°
